カタログに戻る

STARLINK-5736

運用中通信VLEO
NORAD 55584·PAYLOAD·🇺🇸 United States

打ち上げ Feb 12, 2023 から Cape Canaveral Space Force Station

Loading…

次のパス (今後24時間)

TLE

最新Source: CelesTrak SupGP

元期: Sep 14, 2026, 21:42 UTC

1 55584C 23020R   26257.90465278  .00010753  00000+0  38939-3 0  2574
2 55584  43.0013  17.0504 0001505 275.7871 158.3029 15.27579391    13

AllMySatでSTARLINK-5736をリアルタイム追跡

Download on the App Store